Flag for Germany Weather past 2 weeks in Potsdam, Brandenburg, Germany

Now
70 °F

Scattered clouds.


Feels Like: 70 °F
Forecast: 56 / 80 °F
Wind: 6 mph from East

Location: Potsdam

Current Time: Aug 1, 2015 at 12:31:03 PM

Latest Report: Aug 1, 2015 at 12:00 PM


Visibility: 28 mi

Pressure: 30.06 "Hg

Humidity: 39%

Dew point: 44 °F

Location of PotsdamLocation

Historic Weather in Potsdam — Graph

°F

Potsdam temperature yesterday

Maximum temperature yesterday: 67 °F (at 4:00 PM)
Minimum temperature yesterday: 51 °F (at 5:00 AM)
Average temperature yesterday: 59 °F

Past Weeks' High & Low Weather Summary

 TemperatureHumidityPressure
High90 °F (Jul 17, 5:00 PM)99% (Jul 19, 1:00 PM)30.11 "Hg (Jul 19, 1:00 PM)
Low50 °F (Aug 1, 3:00 AM)35% (Jul 17, 6:00 PM)29.55 "Hg (Jul 27, 4:00 PM)
Average66 °F67%29.85 "Hg
* Reported Jul 17 11:00 AM — Aug 1 11:00 AM, Potsdam, Weather by CustomWeather, © 2015

Note: Actual official high and low records may vary slightly from our data, if they occured in-between our weather recording intervals... More about our weather records

Advertising

Potsdam weather history for previous 24 hours

 ConditionsComfort  
Time TempWeatherWind HumidityBarometerVisibility
11:00 AM
Sat, Aug 1
67 °FPartly sunny.5 mph46%30.07 "Hg28 mi
10:00 AM63 °FPartly sunny.6 mph53%30.07 "Hg28 mi
9:00 AM60 °FOvercast.3 mph64%30.08 "Hg25 mi
8:00 AM53 °FOvercast.5 mph78%30.08 "Hg25 mi
7:00 AM52 °FOvercast.5 mph79%30.09 "Hg25 mi
6:00 AM50 °FOvercast.5 mph81%30.09 "Hg22 mi
5:00 AM51 °FOvercast.3 mph80%30.09 "Hg22 mi
4:00 AM51 °FPassing clouds.5 mph79%30.10 "Hg22 mi
3:00 AM50 °FPassing clouds.2 mph78%30.11 "Hg25 mi
2:00 AM53 °FPassing clouds.3 mph74%30.10 "Hg25 mi
1:00 AM54 °FPassing clouds.2 mph71%30.10 "Hg28 mi
12:00 AM55 °FPassing clouds.2 mph72%30.09 "Hg28 mi
11:00 PM
Fri, Jul 31
54 °FPassing clouds.2 mph74%30.09 "Hg28 mi
10:00 PM55 °FPassing clouds.1 mph69%30.09 "Hg28 mi
9:00 PM58 °FPassing clouds.1 mph63%30.09 "Hg31 mi
8:00 PM62 °FScattered clouds.3 mph49%30.08 "Hg28 mi
7:00 PM64 °FPartly sunny.3 mph44%30.07 "Hg28 mi
6:00 PM65 °FPartly sunny.5 mph48%30.07 "Hg25 mi
5:00 PM65 °FOvercast.5 mph49%30.08 "Hg25 mi
4:00 PM67 °FOvercast.5 mph46%30.09 "Hg25 mi
3:00 PM64 °FPartly sunny.5 mph46%30.09 "Hg25 mi
2:00 PM63 °FOvercast.5 mph45%30.09 "Hg25 mi
1:00 PM65 °FPartly sunny.6 mph48%30.08 "Hg25 mi
12:00 PM64 °FOvercast.7 mph55%30.08 "Hg25 mi
Weather by CustomWeather, © 2015

See weather overviewHow to use our weather pages